Weather History for Ostrava, Czech Republic

Change the Weather History Date:

Tuesday, February 12, 2013

  Actual Average (EPKT) Record (EPKT)
Temperature  
Mean Temperature 23 °F -  
Max Temperature 28 °F 41 °F 53 °F (2001)
Min Temperature 18 °F 27 °F -13 °F (2012)
Degree Days  
Heating Degree Days 42    
Moisture  
Dew Point 23 °F    
Average Humidity 88    
Maximum Humidity 100    
Minimum Humidity 75    
Precipitation  
Precipitation 0.00 in 0.04 in - ()
Sea Level Pressure  
Sea Level Pressure 29.84 in    
Wind  
Wind Speed 5 mph ()    
Max Wind Speed 12 mph    
Max Gust Speed -    
Visibility 2.5 miles    
Events Snow    
Averages and records for this station are not official NWS values.
T = Trace of Precipitation, MM = Missing Value Source: Averaged Metar Reports

Daily Weather History Graph

Daily Weather History Graph

Search for Another Location

Airport:

Trip Planner

Search our weather history database for the weather conditions in past years. The results will help you decide how hot, cold, wet, or windy it might be!

Date:

Astronomy

Feb. 12, 2013 Rise Set
Actual Time 7:02 AM CET 5:01 PM CET
Civil Twilight 6:29 AM CET 5:35 PM CET
Nautical Twilight 5:51 AM CET 6:12 PM CET
Astronomical Twilight 5:14 AM CET 6:50 PM CET
Moon 7:32 AM CET (2/12) 8:04 PM CET (2/12)
Length of Visible Light 11h 05m
Length of Day
9h 58m
Waxing Crescent, 6% of the Moon is Illuminated
Feb 12
Waxing Crescent
Feb 17
First Quarter
Feb 25
Full
Mar 4
Last Quarter
Mar 11
New

Hourly Weather History & Observations

Time (CET) Temp. Windchill Dew Point Humidity Pressure Visibility Wind Dir Wind Speed Gust Speed Precip Events Conditions
12:00 AM 23.0 °F 18.4 °F 17.6 °F 80% 29.86 in 6.2 mi East 3.5 mph - N/A   Overcast
12:30 AM 23.0 °F 18.4 °F 17.6 °F 80% 29.83 in 6.2 mi NNE 3.5 mph - N/A   Overcast
1:00 AM 23 °F - 18 °F 75% 29.92 in 7 mi 2.2 mph - -   Overcast
1:00 AM 23.0 °F - 19.4 °F 86% 29.86 in 6.2 mi Variable 1.2 mph - N/A   Overcast
1:30 AM 23.0 °F 18.4 °F 19.4 °F 86% 29.86 in 6.2 mi NW 3.5 mph - N/A Snow Light Snow
2:00 AM 24.8 °F - 19.4 °F 80% 29.86 in 4.3 mi North 2.3 mph - N/A Snow Light Snow
2:30 AM 24.8 °F - 21.2 °F 86% 29.86 in 2.5 mi NNE 2.3 mph - N/A Snow Light Snow
3:00 AM 23.0 °F 18.4 °F 21.2 °F 93% 29.83 in 1.2 mi North 3.5 mph - N/A Snow Light Snow
3:30 AM 23.0 °F 17.0 °F 21.2 °F 93% 29.83 in 1.2 mi NNE 4.6 mph - N/A Snow Light Snow
4:00 AM 24.8 °F 17.9 °F 23.0 °F 93% 29.83 in 1.2 mi NNE 5.8 mph - N/A Snow Light Snow
4:30 AM 24.8 °F 16.9 °F 23.0 °F 93% 29.83 in 1.9 mi NE 6.9 mph - N/A Snow Light Snow
5:00 AM 24.8 °F 17.9 °F 23.0 °F 93% 29.83 in 2.5 mi NE 5.8 mph - N/A   Overcast
5:30 AM 24.8 °F 16.9 °F 23.0 °F 93% 29.83 in 2.5 mi NE 6.9 mph - N/A   Overcast
6:00 AM 24.8 °F 16.9 °F 23.0 °F 93% 29.83 in 5.0 mi NE 6.9 mph - N/A   Overcast
6:30 AM 24.8 °F 16.9 °F 23.0 °F 93% 29.83 in 5.0 mi ENE 6.9 mph - N/A   Overcast
7:00 AM 25 °F - 22 °F 82% 29.89 in 4 mi NE 6.7 mph - -   Mist
7:00 AM 24.8 °F 16.9 °F 21.2 °F 86% 29.83 in 4.3 mi NE 6.9 mph - N/A   Overcast
7:30 AM 24.8 °F 16.9 °F 21.2 °F 86% 29.83 in 3.7 mi NE 6.9 mph - N/A   Overcast
8:00 AM 24.8 °F 19.1 °F 21.2 °F 86% 29.83 in 3.7 mi NNE 4.6 mph - N/A   Overcast
8:30 AM 24.8 °F 17.9 °F 23.0 °F 93% 29.83 in 3.7 mi NNE 5.8 mph - N/A   Overcast
9:00 AM 26.6 °F 21.2 °F 23.0 °F 86% 29.83 in 3.7 mi NNE 4.6 mph - N/A   Overcast
9:30 AM 26.6 °F 21.2 °F 23.0 °F 86% 29.83 in 3.7 mi NNE 4.6 mph - N/A   Overcast
10:00 AM 28.4 °F 21.2 °F 23.0 °F 80% 29.83 in 3.7 mi NNE 6.9 mph - N/A   Overcast
10:30 AM 28.4 °F 20.4 °F 23.0 °F 80% 29.83 in 3.7 mi NNE 8.1 mph - N/A   Overcast
11:00 AM 28.4 °F 19.7 °F 23.0 °F 80% 29.83 in 3.1 mi NNE 9.2 mph - N/A   Overcast
11:01 AM 28.4 °F 20.4 °F 23.0 °F 80% 29.83 in 2.5 mi NNE 8.1 mph - N/A Snow Light Snow
11:10 AM 28.4 °F 20.4 °F 23.0 °F 80% 29.83 in 1.9 mi NNE 8.1 mph - N/A Snow Light Snow
11:27 AM 26.6 °F 17.5 °F 23.0 °F 86% 29.83 in 0.7 mi NNE 9.2 mph - N/A Snow Light Snow
11:30 AM 26.6 °F 17.5 °F 23.0 °F 86% 29.83 in 1.9 mi NNE 9.2 mph - N/A Snow Light Snow
12:00 PM 26.6 °F 16.8 °F 23.0 °F 86% 29.86 in 1.2 mi NNE 10.4 mph - N/A Snow Light Snow
12:30 PM 26.6 °F 16.8 °F 23.0 °F 86% 29.83 in 1.2 mi NNE 10.4 mph - N/A Snow Light Snow
1:00 PM 27 °F - 23 °F 80% 29.89 in 1 mi NNE 11.2 mph - - Snow Light Snow
1:00 PM 26.6 °F 16.2 °F 23.0 °F 86% 29.83 in 1.2 mi NNE 11.5 mph - N/A Snow Light Snow
1:30 PM 26.6 °F 16.2 °F 23.0 °F 86% 29.83 in 1.2 mi NE 11.5 mph - N/A Snow Light Snow
2:00 PM 26.6 °F 18.2 °F 24.8 °F 93% 29.83 in 1.2 mi NNE 8.1 mph - N/A   Overcast
2:30 PM 26.6 °F 18.2 °F 23.0 °F 86% 29.83 in 1.6 mi NNE 8.1 mph - N/A   Overcast
3:00 PM 26.6 °F 17.5 °F 24.8 °F 93% 29.83 in 1.6 mi NNE 9.2 mph - N/A   Overcast
3:30 PM 26.6 °F 17.5 °F 24.8 °F 93% 29.80 in 1.6 mi NNE 9.2 mph - N/A   Overcast
3:35 PM 28.4 °F 21.2 °F 24.8 °F 86% 29.80 in 1.6 mi NNE 6.9 mph - N/A   Overcast
4:00 PM 28.4 °F 21.2 °F 23.0 °F 80% 29.80 in 1.6 mi North 6.9 mph - N/A Snow Light Snow
4:30 PM 28.4 °F 21.2 °F 24.8 °F 86% 29.83 in 1.6 mi North 6.9 mph - N/A Snow Light Snow
5:00 PM 28.4 °F 20.4 °F 24.8 °F 86% 29.83 in 1.6 mi North 8.1 mph - N/A Snow Light Snow
5:30 PM 28.4 °F 22.2 °F 24.8 °F 86% 29.83 in 1.6 mi North 5.8 mph - N/A Snow Light Snow
6:00 PM 28.4 °F 24.6 °F 24.8 °F 86% 29.83 in 2.8 mi North 3.5 mph - N/A Snow Light Snow
6:30 PM 28.4 °F 24.6 °F 24.8 °F 86% 29.83 in 2.5 mi North 3.5 mph - N/A Snow Light Snow
7:00 PM 28 °F - 25 °F 83% 29.92 in 2 mi 2.2 mph - - Snow Light Snow
7:00 PM 28.4 °F - 24.8 °F 86% 29.86 in 1.6 mi Variable 1.2 mph - N/A Snow Light Snow
7:30 PM 28.4 °F - 24.8 °F 86% 29.86 in 1.2 mi WSW 2.3 mph - N/A Snow Light Snow
8:00 PM 28.4 °F - 26.6 °F 93% 29.86 in 0.9 mi West 1.2 mph - N/A Snow Snow
8:30 PM 26.6 °F - 26.6 °F 100% 29.86 in 0.9 mi Calm Calm - N/A Snow Snow
9:00 PM 26.6 °F - 26.6 °F 100% 29.86 in 0.9 mi North 2.3 mph - N/A Snow Snow
9:30 PM 28.4 °F - 26.6 °F 93% 29.89 in 0.9 mi Variable 1.2 mph - N/A Snow Snow
10:00 PM 26.6 °F - 26.6 °F 100% 29.89 in 0.9 mi Calm Calm - N/A Snow Snow
10:30 PM 26.6 °F - 26.6 °F 100% 29.89 in 0.9 mi Calm Calm - N/A Snow Light Snow
11:00 PM 26.6 °F - 26.6 °F 100% 29.89 in 0.9 mi Calm Calm - N/A Snow Light Snow
11:30 PM 26.6 °F - 26.6 °F 100% 29.89 in 0.9 mi ENE 2.3 mph - N/A Snow Light Snow